Orbital Elements at Epoch 2459000.5 (2020-May-31.0) TDB
Reference: JPL 30 (heliocentric ecliptic J2000)
Element | Value | Uncertainty (1-sigma) | Units |
e | .009998455673607387 | 3.306e-08 | |
a | 2.604569198086966 | 9.5724e-09 | au |
q | 2.578527528411051 | 8.5585e-08 | au |
i | 1.388887057817714 | 3.3068e-06 | deg |
node | 306.5478228617695 | 0.00014234 | deg |
peri | 208.895704643009 | 0.00022467 | deg |
M | 226.5465254828369 | 0.00017543 | deg |
tp | 2459569.653828798841 (2021-Dec-21.15382880) | 0.00074862 | TDB |
period | 1535.331913304601 4.20 | 8.464e-06 2.317e-08 | d yr |
n | .2344769862987783 | 1.2926e-09 | deg/d |
Q | 2.630610867762882 | 9.6681e-09 | au |
|
| | Orbit Determination Parameters
Additional Information
|